Weather History for Shannon, Ireland

Change the Weather History Date:

Sunday, December 1, 2013

  Actual Average Record
Temperature  
Mean Temperature 44 °F -  
Max Temperature 48 °F 48 °F 53 °F (1996)
Min Temperature 39 °F 38 °F 21 °F (2010)
Degree Days  
Heating Degree Days 22    
Moisture  
Dew Point 43 °F    
Average Humidity 89    
Maximum Humidity 100    
Minimum Humidity 76    
Precipitation  
Precipitation 0.01 in 0.13 in - ()
Sea Level Pressure  
Sea Level Pressure 30.57 in    
Wind  
Wind Speed 3 mph ()    
Max Wind Speed 9 mph    
Max Gust Speed -    
Visibility 6.7 miles    
Events Fog , Rain    
Averages and records for this station are not official NWS values.
T = Trace of Precipitation, MM = Missing Value Source: Averaged Metar Reports

Daily Weather History Graph

Daily Weather History Graph

Search for Another Location

Airport:

Trip Planner

Search our weather history database for the weather conditions in past years. The results will help you decide how hot, cold, wet, or windy it might be!

Date:

Astronomy

Dec. 01, 2013 Rise Set
Actual Time 8:24 AM GMT 4:24 PM GMT
Civil Twilight 7:44 AM GMT 5:04 PM GMT
Nautical Twilight 7:00 AM GMT 5:48 PM GMT
Astronomical Twilight 6:19 AM GMT 6:29 PM GMT
Moon 6:15 AM GMT (12/1) 3:33 PM GMT (12/1)
Length of Visible Light 9h 20m
Length of Day
7h 59m
Waning Crescent, 3% of the Moon is Illuminated
Dec 1
Waning Crescent
Dec 3
New
Dec 9
First Quarter
Dec 17
Full
Dec 25
Last Quarter

Hourly Weather History & Observations

Time (GMT) Temp. Windchill Dew Point Humidity Pressure Visibility Wind Dir Wind Speed Gust Speed Precip Events Conditions
12:00 AM 46 °F - 42 °F 80% 30.58 in 12 mi NNW 2.2 mph - -   Partly Cloudy
12:00 AM 46.4 °F - 42.8 °F 87% 30.57 in 6.2 mi Variable 2.3 mph - N/A   Mostly Cloudy
12:30 AM 44.6 °F - 41.0 °F 87% 30.57 in 6.2 mi West 2.3 mph - N/A   Partly Cloudy
1:00 AM 42.8 °F 41.1 °F 39.2 °F 87% 30.57 in 6.2 mi SW 3.5 mph - N/A   Partly Cloudy
1:30 AM 42.8 °F - 41.0 °F 93% 30.57 in 6.2 mi Variable 1.2 mph - N/A   Mostly Cloudy
2:00 AM 39.2 °F - 37.4 °F 93% 30.57 in 6.2 mi Variable 1.2 mph - N/A   Scattered Clouds
2:30 AM 41.0 °F - 39.2 °F 93% 30.57 in 6.2 mi Variable 2.3 mph - N/A   Mostly Cloudy
3:00 AM 42.8 °F - 41.0 °F 93% 30.57 in 6.2 mi Variable 1.2 mph - N/A   Mostly Cloudy
3:30 AM 42.8 °F - 41.0 °F 93% 30.57 in 6.2 mi North 2.3 mph - N/A   Mostly Cloudy
4:00 AM 42.8 °F - 41.0 °F 93% 30.57 in 6.2 mi WNW 1.2 mph - N/A   Mostly Cloudy
4:30 AM 42.8 °F 41.1 °F 41.0 °F 93% 30.57 in 6.2 mi NW 3.5 mph - N/A   Mostly Cloudy
5:00 AM 44.6 °F 42.2 °F 42.8 °F 93% 30.57 in 6.2 mi West 4.6 mph - N/A   Light Drizzle
5:30 AM 44.6 °F - 42.8 °F 93% 30.57 in 6.2 mi NE 1.2 mph - N/A   Mostly Cloudy
6:00 AM 44 °F - 42 °F 92% 30.58 in 12 mi WSW 2.2 mph - - Rain Light Drizzle
6:00 AM 42.8 °F - 42.8 °F 100% 30.57 in 6.2 mi WSW 1.2 mph - N/A   Mostly Cloudy
6:30 AM 42.8 °F 41.1 °F 42.8 °F 100% 30.57 in 6.2 mi WSW 3.5 mph - N/A   Mostly Cloudy
7:00 AM 42.8 °F - 42.8 °F 100% 30.57 in 6.2 mi Variable 1.2 mph - N/A   Mostly Cloudy
7:30 AM 42.8 °F - 42.8 °F 100% 30.57 in 6.2 mi Variable 2.3 mph - N/A   Light Drizzle
8:00 AM 42.8 °F - 42.8 °F 100% 30.60 in 6.2 mi South 2.3 mph - N/A   Mostly Cloudy
8:30 AM 44.6 °F - 42.8 °F 93% 30.60 in 1.6 mi NNW 2.3 mph - N/A   Light Drizzle
9:00 AM 42.8 °F - 42.8 °F 100% 30.60 in 6.2 mi East 1.2 mph - N/A   Mostly Cloudy
9:30 AM 42.8 °F - 42.8 °F 100% 30.60 in 6.2 mi Calm Calm - N/A Fog Shallow Fog
10:00 AM 44.6 °F - 44.6 °F 100% 30.60 in 6.2 mi ESE 1.2 mph - N/A Fog Shallow Fog
10:30 AM 44.6 °F 42.2 °F 44.6 °F 100% 30.60 in 2.2 mi SSW 4.6 mph - N/A Fog Fog
11:00 AM 46.4 °F 45.2 °F 44.6 °F 93% 30.60 in 6.2 mi SW 3.5 mph - N/A   Mostly Cloudy
11:30 AM 46.4 °F 44.3 °F 46.4 °F 100% 30.60 in 6.2 mi SW 4.6 mph - N/A   Mostly Cloudy
12:00 PM 47 °F - 46 °F 94% 30.61 in 16 mi SSW 2.2 mph - -   Partly Cloudy
12:00 PM 46.4 °F - 46.4 °F 100% 30.60 in 6.2 mi SSW 2.3 mph - N/A   Mostly Cloudy
12:30 PM 46.4 °F - 46.4 °F 100% 30.60 in 6.2 mi South 1.2 mph - N/A   Mostly Cloudy
1:00 PM 48.2 °F - 46.4 °F 93% 30.60 in 6.2 mi SSE 2.3 mph - N/A   Mostly Cloudy
1:30 PM 48.2 °F - 44.6 °F 87% 30.57 in 6.2 mi SE 1.2 mph - N/A   Mostly Cloudy
2:00 PM 48.2 °F - 44.6 °F 87% 30.57 in 6.2 mi SE 2.3 mph - N/A   Mostly Cloudy
2:30 PM 48.2 °F - 44.6 °F 87% 30.57 in 6.2 mi SE 3.5 mph - N/A   Mostly Cloudy
3:00 PM 48.2 °F - 44.6 °F 87% 30.54 in 6.2 mi SE 3.5 mph - N/A   Mostly Cloudy
3:30 PM 48.2 °F - 44.6 °F 87% 30.54 in 6.2 mi SSE 2.3 mph - N/A   Mostly Cloudy
4:00 PM 48.2 °F - 44.6 °F 87% 30.54 in 6.2 mi SE 3.5 mph - N/A   Overcast
4:30 PM 48.2 °F - 44.6 °F 87% 30.54 in 6.2 mi East 4.6 mph - N/A   Overcast
5:00 PM 48.2 °F - 44.6 °F 87% 30.54 in 6.2 mi ESE 4.6 mph - N/A   Overcast
5:30 PM 48.2 °F - 42.8 °F 82% 30.54 in 6.2 mi ESE 5.8 mph - N/A   Mostly Cloudy
6:00 PM 47 °F - 42 °F 77% 30.56 in 19 mi SE 4.5 mph - -   Overcast
6:00 PM 46.4 °F 45.2 °F 42.8 °F 87% 30.54 in 6.2 mi SE 3.5 mph - N/A   Mostly Cloudy
6:30 PM 48.2 °F - 41.0 °F 76% 30.57 in 6.2 mi East 4.6 mph - N/A   Mostly Cloudy
7:00 PM 48.2 °F - 41.0 °F 76% 30.57 in 6.2 mi East 5.8 mph - N/A   Mostly Cloudy
7:30 PM 48.2 °F - 41.0 °F 76% 30.57 in 6.2 mi ESE 5.8 mph - N/A   Mostly Cloudy
8:00 PM 46.4 °F 44.3 °F 41.0 °F 81% 30.57 in 6.2 mi ESE 4.6 mph - N/A   Mostly Cloudy
8:30 PM 46.4 °F 44.3 °F 41.0 °F 81% 30.57 in 6.2 mi SE 4.6 mph - N/A   Overcast
9:00 PM 46.4 °F 43.5 °F 41.0 °F 81% 30.57 in 6.2 mi SSE 5.8 mph - N/A   Overcast
9:30 PM 46.4 °F 43.5 °F 41.0 °F 81% 30.57 in 6.2 mi SSE 5.8 mph - N/A   Overcast
10:00 PM 46.4 °F 42.4 °F 41.0 °F 81% 30.57 in 6.2 mi South 8.1 mph - N/A   Overcast
10:30 PM 46.4 °F 41.9 °F 41.0 °F 81% 30.57 in 6.2 mi South 9.2 mph - N/A   Overcast
11:00 PM 46.4 °F 42.4 °F 39.2 °F 76% 30.57 in 6.2 mi SSW 8.1 mph - N/A   Overcast
11:30 PM 46.4 °F 43.5 °F 39.2 °F 76% 30.57 in 6.2 mi South 5.8 mph - N/A   Overcast